Tracking 28522 objects as of 28-Feb-2024
HD Live streaming from Space Station
objects crossing your sky now

STARLINK-4587

Track STARLINK-4587 now!
10-day predictions
STARLINK-4587 is classified as:


NORAD ID: 53635
Int'l Code: 2022-104AZ
Perigee: 545.9 km
Apogee: 547.9 km
Inclination: 53.2 °
Period: 95.4 minutes
Semi major axis: 6917 km
RCS: Unknown
Launch date: August 28, 2022
Source: United States (US)
Launch site: AIR FORCE EASTERN TEST RANGE (AFETR)
Your satellite tracking list
Your tracking list is empty




NASA's NSSDC Master Catalog

Two Line Element Set (TLE):
1 53635U 22104AZ  24058.91102406 -.00000242  00000-0  28591-5 0  9992
2 53635  53.2174 309.5491 0001423 100.0267 260.0885 15.08835807 84391
Source of the keplerian elements: AFSPC